Regional Weather Roundup
Issued by NWS Austin/San Antonio, TX

Home | Current Version | Previous Version | Text Only | Print | Product List | Glossary On
Versions: 1 2 3 4 5 6 7 8 9 10 11 12 13 14 15 16 17 18 19 20 21 22 23 24 25 26 27 28 29 30 31 32 33 34 35 36 37 38 39 40 41 42 43 44 45 46 47 48 49 50
747
ASUS44 KEWX 232002
RWREWX
SOUTH TEXAS REGIONAL WEATHER ROUNDUP
NATIONAL WEATHER SERVICE AUSTIN/SAN ANTONIO TX
300 PM CDT SUN JUL 23 2017

NOTE: "FAIR" INDICATED FEW OR NO CLOUDS BELOW 12,000 FEET WITH NO
SIGNIFICANT WEATHER AND/OR OBSTRUCTIONS TO VISIBILITY.

* - THESE STATIONS ARE NOT NWS OR FAA STATIONS...AND ARE NOT SUBJECT
    TO NWS AND FAA QUALITY CONTROL.

TXZ171-172-183>190-232100-
TEXAS HILL COUNTRY AND EDWARDS PLATEAU

CITY           SKY/WX    TMP DP  RH WIND       PRES   REMARKS
JUNCTION       MOSUNNY   98  63  31 CALM      29.89F HX 100
*LLANO         TSTM      73  70  88 S21       30.01  VSB 3/4
BURNET         CLOUDY    81  65  58 E7        29.95R
*HORSESHOE BAY CLOUDY    89  66  46 CALM      29.93R HX  91
*KERRVILLE     MOSUNNY   97  69  40 SE12      29.92F HX 103
*FREDERICKSBRG CLOUDY    96  61  31 S10G16    29.91F HX  96
*ROCKSPRINGS   MOSUNNY   97  63  32 SW8       29.99F HX  98
*BOERNE STAGE  SUNNY     91  64  40 E6        29.93F HX  93
*CASTROVILLE   SUNNY    100  62  28 S12G18    29.89F HX 101
HONDO          SUNNY    100  65  31 VRB3      29.89F HX 103
*UVALDE        MOSUNNY   99  67  35 SE13      29.88F HX 104
DEL RIO        SUNNY     99  62  29 S8        29.85F HX 100
LAUGHLIN AFB   NOT AVBL
CARRIZO SPRGS  MOSUNNY  100  63  28 E5        29.85F HX 102
*EAGLE PASS    NOT AVBL
$$

TXZ173-191>194-202-209-217>225-228-232100-
CENTRAL AND SOUTH CENTRAL TEXAS

CITY           SKY/WX    TMP DP  RH WIND       PRES   REMARKS
GEORGETOWN     MOSUNNY   97  73  46 SW16G23   29.91F HX 107
AUSTIN/BERGSTM MOSUNNY   99  69  37 S7G23     29.87F HX 105
AUSTIN/MABRY   SUNNY    102  67  31 VRB7G17   29.88F HX 107
*AUSTIN/EXEC     N/A     99  70  39 SE6       29.89F HX 105
*LAGO VISTA    SUNNY     87  69  55 N15G21    29.92F HX  91
SAN MARCOS     MOSUNNY   99  66  34 S9G17     29.89F HX 102
NEW BRAUNFELS  SUNNY     98  68  37 VRB6      29.87F HX 103
RANDOLPH AFB   MOSUNNY   97  67  37 S8        29.89F HX 100
PT SAN ANTONIO NOT AVBL
SAN ANTONIO    MOSUNNY   99  67  35 S9        29.89F HX 103
STINSON FIELD  MOSUNNY  102  66  30 SE12      29.86F HX 106
*LA GRANGE     SUNNY     99  72  41 SW8       29.87F HX 107
*GIDDINGS      PTSUNNY   96  65  35 SW7       29.90F HX  99
*GONZALES      SUNNY     99  72  41 S9        29.89F HX 107
$$

TXZ163>164-176>182-195>201-210>213-226-227-235-232100-
SOUTHEAST TEXAS

CITY           SKY/WX    TMP DP  RH WIND       PRES   REMARKS
COLLEGE STN    MOSUNNY   97  69  40 S9        29.88F HX 103
*BRYAN         PTSUNNY   97  69  39 W3        29.90F HX 103
*CALDWELL      NOT AVBL
*CROCKETT      PTSUNNY   91  77  62 S9        29.93F HX 105
*BRENHAM       SUNNY     97  69  38 SW6       29.90F HX 103
HUNTSVILLE     PTSUNNY   94  70  45 S9        29.91F HX 100
CONROE         MOSUNNY   78  71  79 CALM      29.92F
HOUSTON BUSH   CLOUDY    84  73  69 SE10      29.92F THUNDER HX  90
HOUSTON HOBBY  CLOUDY    95  71  45 SW12      29.91F THUNDER HX 102
*HOUSTON SW AP CLOUDY    92  75  57 SW8       29.93F HX 103
PEARLAND       CLOUDY    94  72  48 S12G17    29.93F HX 102
HOUSTON HOOKS  CLOUDY    93  71  48 SW9       29.91F HX 100
ELLINGTON FLD  PTSUNNY   95  75  52 SW12      29.93F HX 107
SUGAR LAND     CLOUDY    94  75  54 SW12      29.90F HX 105
*HOUSTON EXEC  CLOUDY    95  73  49 SW12      29.92F HX 105
*CLEVELAND MUN CLOUDY    88  71  56 W6        29.92F HX  94
*WHARTON       SUNNY     94  67  40 S13       29.92F HX  98
*COLUMBUS      FAIR      96  67  38 S9        29.90F HX  99
*EAGLE LAKE    PTCLDY    97  73  45 S12       29.90F HX 107
$$

TXZ214>216-236>238-232100-
THE UPPER TEXAS COAST

CITY           SKY/WX    TMP DP  RH WIND       PRES   REMARKS
*ORANGE        CLOUDY    83  78  83 CALM      29.97R HX  94
PORT ARTHUR    CLOUDY    88  77  69 S8        29.93F HX 100
GALVESTON      CLOUDY    89  76  65 SW21      29.95F HX 100
ANGLETON       MOSUNNY   92  75  57 SW12G18   29.93F HX 103
*BAY CITY      MOSUNNY   92  74  54 S15       29.93F HX 101
PALACIOS       SUNNY     88  75  65 S16       29.93F HX  97
$$

TXZ229>234-239>247-232100-
TEXAS COASTAL BEND AND RIO GRANDE PLAINS

CITY           SKY/WX    TMP DP  RH WIND       PRES   REMARKS
VICTORIA       MOSUNNY   97  70  41 S16G26    29.90F HX 103
*BEEVILLE      MOSUNNY   99  69  37 S13       29.89F HX 104
ROCKPORT       SUNNY     91  73  55 SE20G29   29.90F HX  99
*PORT ARANSAS  SUNNY     88  75  64 S18G25    29.92F HX  98
*PORT LAVACA   SUNNY     91  72  54 S15G22    29.92F HX  98
*INGLESIDE     SUNNY     92  76  60 MISG      29.91F HX 103
CORPUS CHRISTI MOSUNNY   95  75  52 SE16G26   29.89F HX 107
CORPUS NAS     MOSUNNY   93  78  61 S20G29    29.90F HX 108
*ROBSTOWN      MOSUNNY   98  70  40 SE15G21   29.88F HX 105
ALICE          SUNNY    100  62  28 S14G23    29.86F HX 101
KINGSVILLE NAS SUNNY    103  64  28 SE15G23   29.87F HX 106
COTULLA        SUNNY    100  57  23 MISG      29.85F HX  99
*FAITH RANCH   SUNNY    102  63  27 SE8G16    29.86F HX 104
LAREDO         SUNNY    101  66  31 SE9G16    29.89F HX 105
$$

TXZ248>255-232100-
DEEP SOUTH TEXAS

CITY           SKY/WX    TMP DP  RH WIND       PRES   REMARKS
BROWNSVILLE    MOSUNNY   92  73  53 S21G35    29.91F HX 100
PORT ISABEL    MOSUNNY   95  73  48 S25G33    29.89F HAZE    HX 104
*SOUTH PADRE   NOT AVBL
HARLINGEN      SUNNY     98  70  40 S23G35    29.88F HX 105
*HEBBRONVILLE  SUNNY     98  62  30 S13       29.88F HX  99
MCALLEN        SUNNY    102  68  33 S16G28    29.86F HX 108
*WESLACO       SUNNY     97  70  41 S18G25    29.87F HX 103
FALFURRIAS     SUNNY    100  60  27 SE15      29.86F HX 100
EDINBURG       MOSUNNY  101  65  31 SE18G28   29.87F HX 104
*ZAPATA        SUNNY    102  63  28 S9G16     29.84F HX 104
$$

TXZ213>215-236>238-242>244-246-247-251-254-255-232100-
CMAN STATIONS

STATION/POSITION TIME  TEMP    WIND        PRES    WAVE
                       AIR SEA DIR/SP/G            HT/PER
                 (UTC) (F)     (DEG/KT/KT) (MB)    (FT/S)
SABINE PASS      1924   88 88  210/ 10/ 17 1015.6
SEA RIM ST PARK  1900   87     220/ 13/ 18 1014.8
NORTH JETTY/GLS  1918      87  200/ 20/ 23 1013.7
EAGLE POINT      1924   91 88  240/  9/ 15 1013.8
MORGANS POINT    1924   91 88  190/  8/ 12 1013.3
MISSION/ARANSAS  1900          160/ 17     1014.0
PORT O`CONNOR    1930   86     180/ 16/ 19 1013.3
PORT ARANSAS     1900   85 86  160/ 21/ 22 1013.9
MALAQUITE BEACH  1930   85 86  140/ 21/ 24 1012.4
BAFFIN BAY       1930      89              1013.0
PORT ISABEL      1930   90 85              1013.3
$$




USA.gov is the U.S. government's official web portal to all federal, state and local government web resources and services.